Flag for U.S.A. Weather past 2 weeks in Palm Springs, California, U.S.A.

Now
108 °F

Broken clouds.


Feels Like: 107 °F
Forecast: 87 / 108 °F
Wind: 7 mph from Southeast

Location: Palm Springs Regional Airport

Current Time: Jul 31, 2014 at 7:00:53 PM

Latest Report: Jul 31, 2014 at 5:53 PM


Visibility: 10 mi

Pressure: 29.72 "Hg

Humidity: 17%

Dew point: 55 °F

Location of Palm SpringsLocation

Historic Weather in Palm Springs — Graph

°F

Palm Springs temperature yesterday

Maximum temperature yesterday: 114 °F (at 3:53 PM)
Minimum temperature yesterday: 84 °F (at 4:53 AM)
Average temperature yesterday: 100 °F

Past Weeks' High & Low Weather Summary

 TemperatureHumidityPressure
High115 °F (Jul 23, 2:53 PM)83% (Jul 25, 2:53 PM)30.02 "Hg (Jul 25, 2:53 PM)
Low75 °F (Jul 18, 5:53 AM)3% (Jul 23, 11:53 AM)29.62 "Hg (Jul 24, 5:53 PM)
Average94 °F27%29.83 "Hg
* Reported Jul 16 5:53 PM — Jul 31 5:53 PM, Palm Springs, Weather by CustomWeather, © 2014

Note: Actual official high and low records may vary slightly from our data, if they occured in-between our weather recording intervals... More about our weather records

Advertising

Palm Springs weather history for previous 24 hours

 ConditionsComfort  
Time TempWeatherWind HumidityBarometerVisibility
5:53 PM
Jul 31
108 °FBroken clouds.7 mph17%29.72 "Hg10 mi
4:53 PM109 °FSunny.9 mph16%29.73 "Hg10 mi
3:53 PM109 °FSunny.8 mph16%29.75 "Hg10 mi
2:53 PM109 °FSunny.12 mph16%29.77 "Hg10 mi
1:53 PM107 °FBroken clouds.14 mph18%29.80 "Hg10 mi
12:53 PM108 °FSunny.15 mph17%29.80 "Hg10 mi
11:53 AM109 °FSunny.10 mph13%29.81 "Hg10 mi
10:53 AM108 °FSunny.3 mph13%29.82 "Hg10 mi
9:53 AM105 °FSunny.13 mph16%29.82 "Hg10 mi
8:53 AM101 °FSunny.13 mph18%29.82 "Hg10 mi
7:53 AM96 °FSunny.10 mph23%29.81 "Hg10 mi
6:53 AM92 °FClear.8 mph28%29.82 "Hg10 mi
5:53 AM93 °FClear.7 mph26%29.80 "Hg10 mi
4:53 AM93 °FClear.8 mph26%29.80 "Hg10 mi
3:53 AM90 °FClear.5 mph31%29.80 "Hg10 mi
2:53 AM93 °FClear.6 mph27%29.79 "Hg10 mi
1:53 AM91 °FClear.3 mph30%29.80 "Hg10 mi
12:53 AM96 °FClear.No wind23%29.80 "Hg10 mi
11:53 PM
Jul 30
99 °FClear.3 mph18%29.80 "Hg10 mi
10:53 PM102 °FClear.10 mph15%29.78 "Hg10 mi
9:53 PM103 °FClear.16 mph15%29.77 "Hg10 mi
8:53 PM104 °FClear.16 mph14%29.76 "Hg10 mi
7:53 PM105 °FSunny.18 mph14%29.74 "Hg10 mi
Weather by CustomWeather, © 2014

See weather overviewHow to use our weather pages